Location: Arborea
(39.7744°N, 8.5819°E)
Time: 00:59:51
(UTC+00:00)

H-2A R/B - Pass Details

Date: 24 October 2021
Orbit: 528 x 650 km, 98.3° (Epoch: 06 December)

Event Time Altitude Azimuth Distance (km) Brightness Sun altitude
Rises 18:16:24 0° 171° (S) 2,900 5.9 -20.4°
Reaches altitude 10° 18:18:38 10° 174° (S) 1,981 5.1 -20.8°
Maximum altitude 18:22:55 69° 257° (WSW) 649 2.7 -21.7°
Drops below altitude 10° 18:27:05 10° 342° (NNW) 1,922 5.3 -22.5°
Sets 18:29:13 0° 345° (NNW) 2,807 6.2 -22.9°
